Hourly Weather Roundup
Issued by NWS Central Illinois

Home | Current Version | Previous Version | Graphics & Text | Print | Product List | Glossary On
Versions: 1 2 3 4 5 6 7 8 9 10 11 12 13 14 15 16 17 18 19 20 21 22 23 24 25 26 27 28 29 30 31 32 33 34 35 36 37 38 39 40 41 42 43 44 45 46 47 48 49 50
000
NZUS43 KILX 221110
HWRILX

AREA WEATHER ROUNDUP
NATIONAL WEATHER SERVICE, LINCOLN IL
600 AM CDT WED OCT 22 2014


CITY           SKY/WX    TMP DP  RH WIND       PRES   REMARKS
BLOOMINGTON    CLEAR     36  35  96 NE6       30.31R WCI  31
CHAMPAIGN      CLEAR     37  34  89 NE5       30.29R WCI  33
DECATUR        CLEAR     36  33  89 NE3       30.29R
FLORA          CLEAR     40  39  93 CALM      30.27R
GALESBURG      CLEAR     37  36  95 E3        30.30R
JACKSONVILLE   CLEAR     36  35  93 E5        30.29R WCI  32
LACON          LGT RAIN  32  32  98 CALM      30.31S VSB<1/4
LAWRENCEVILLE  CLEAR     41  40  96 NE6       30.27R
LITCHFIELD     CLEAR     40  37  86 E6        30.27R
$$


CITY           SKY/WX    TMP DP  RH WIND       PRES   REMARKS
LINCOLN        CLEAR     36  35  96 CALM      30.30R
MACOMB         CLEAR     31  31 100 CALM      30.32R FOG
MATTOON        CLEAR     37  35  92 CALM      30.27R
MT CARMEL AP   CLEAR     45  41  87 NE7       30.27R
OLNEY-NOBLE AP CLEAR     39  37  93 CALM      30.28R
PARIS          CLEAR     38  37  97 NE3       30.30R
PEORIA         CLEAR     40  36  86 CALM      30.31R
PONTIAC        CLEAR     33  32  99 CALM      30.32R FOG
RANTOUL        CLEAR     40  35  81 NE3       30.30R
ROBINSON       CLEAR     38  38 100 CALM      30.28R
SPRINGFIELD    CLEAR     36  34  92 CALM      30.30R
TAYLORVILLE    FOG       34  34 100 N3        30.29R VSB 3/4
$$

...REGIONAL REPORTS...


CITY           SKY/WX    TMP DP  RH WIND       PRES   REMARKS
CHICAGO O`HARE MOCLDY    45  40  82 N6        30.31R
KANKAKEE       FOG       35  34  99 CALM      30.32R VSB 3/4
MOLINE         PTCLDY    31  29  92 E6        30.30S WCI  25
MOUNT VERNON   CLEAR     41  36  81 N5        30.27R
PITTSFIELD     CLEAR     38  37  94 CALM      30.30R FOG
QUINCY         CLEAR     40  37  89 E6        30.28R
ROCKFORD       PTCLDY    33  29  85 CALM      30.34R
$$


CITY           SKY/WX    TMP DP  RH WIND       PRES   REMARKS
BURLINGTON     CLEAR     40  37  89 SE5       30.29R
CEDAR RAPIDS   CLEAR     35  34  96 E5        30.28R WCI  31
DES MOINES     PTCLDY    45  38  76 SE9       30.22R
KIRKSVILLE     CLEAR     41  39  93 E7        30.26R
OTTUMWA        NOT AVBL
ST LOUIS       CLEAR     43  38  82 E5        30.27S
$$


CITY           SKY/WX    TMP DP  RH WIND       PRES   REMARKS
TERRE HAUTE    CLEAR     38  36  92 N5        30.28R WCI  34
EVANSVILLE     CLEAR     43  40  89 N6        30.26R
INDIANAPOLIS   CLEAR     39  34  82 N8        30.28R WCI  33
LAFAYETTE      CLEAR     37  36  96 NE3       30.30R
MADISON        MOCLDY    27  26  96 CALM      30.33R FOG
MILWAUKEE      PTCLDY    36  33  89 NW3       30.32R
$$





USA.gov is the U.S. government's official web portal to all federal, state and local government web resources and services.